Probability
0 0 0 0 0 0 0 0 0 1 2 3 1 0 0 0 0 0 0 0 0 0 0 0 0 0 0 0 0 0 1 2 3 3 4 4 5 8 13 16 16 12 10 9
0 0 0 0 0 0 0 0 0 1 1 1 0 0 0 0 0 0 0 0 0 0 0 0 0 0 0 0 0 0 1 2 3 3 3 3 3 4 9 13 13 10 8 6
0 0 0 0 0 0 0 0 0 1 0 0 0 0 0 0 0 0 0 0 0 0 0 0 0 0 0 0 0 0 0 1 2 3 2 1 0 1 4 8 9 7 5 4
0 0 0 0 0 0 0 0 0 0 0 0 0 0 0 0 0 0 0 0 0 0 0 0 0 0 0 0 0 0 0 0 1 2 1 0 0 0 1 3 5 5 4 3
0 0 0 0 0 0 0 0 0 0 0 0 0 0 0 0 0 0 0 0 0 0 0 0 0 0 0 0 0 0 0 0 0 0 0 0 0 0 0 1 1 2 1 1
0 0 0 0 0 0 0 0 0 0 0 0 0 0 0 0 0 0 0 0 0 0 0 0 0 0 0 0 0 0 0 0 0 0 0 0 0 0 0 0 0 0 0 0
0 0 0 0 0 0 0 0 0 0 0 0 0 0 0 0 0 0 0 0 0 0 0 0 0 0 0 0 0 0 0 0 0 0 0 0 0 0 0 0 0 0 0 0
0 0 0 0 0 0 0 0 0 0 0 0 0 0 0 0 0 0 0 0 0 0 0 0 0 0 0 0 0 0 0 0 0 0 0 0 0 0 0 0 1 1 0 0
0 0 0 0 0 0 0 0 0 0 0 0 0 0 0 0 0 0 0 0 0 0 0 0 0 0 0 0 0 0 0 0 0 0 0 0 0 0 0 0 1 2 1 0
0 0 0 0 0 0 0 0 0 0 0 0 0 0 0 0 0 0 0 0 0 0 0 0 0 0 0 0 0 0 0 0 0 0 0 0 0 0 0 0 1 1 1 0
0 0 0 0 0 0 0 0 0 0 0 0 0 0 0 0 0 0 0 0 0 0 0 0 0 0 0 0 0 0 0 0 0 0 0 0 0 0 0 0 0 0 0 0
0 0 0 0 0 0 0 0 0 0 0 0 0 0 0 0 0 0 0 0 0 0 0 0 0 0 0 0 0 0 0 0 0 0 0 0 0 0 0 0 0 0 0 0
0 0 0 0 0 0 0 0 0 0 0 0 0 0 0 0 0 0 0 0 0 0 0 0 0 0 0 0 0 0 0 0 0 0 0 0 0 0 0 0 0 0 0 0
0 0 0 0 0 0 0 0 0 0 0 0 0 0 0 0 0 0 0 0 0 0 0 0 0 0 0 0 0 0 0 0 0 0 0 0 0 0 0 0 0 0 0 0
0 0 0 0 0 0 0 0 0 0 0 0 0 0 0 0 0 0 0 0 0 0 0 0 0 0 0 0 0 0 0 0 0 0 0 0 0 0 0 0 0 0 0 0
0 0 0 0 0 0 0 0 0 0 0 0 0 0 0 0 0 0 0 0 0 0 0 0 0 0 0 0 0 0 0 0 0 0 0 0 0 0 0 0 0 0 0 0
0 0 0 0 0 0 0 0 0 0 0 0 0 0 0 0 0 0 0 0 0 0 0 0 0 0 0 0 0 0 0 0 0 0 0 0 0 0 0 0 0 0 0 0
0 0 0 0 0 0 0 0 0 0 0 0 0 0 0 0 0 0 0 0 0 0 0 0 0 0 0 0 0 0 0 0 0 0 0 0 0 0 0 0 0 0 0 0
0 0 0 0 0 0 0 0 0 0 0 0 0 0 0 0 0 0 0 0 0 0 0 0 0 0 0 0 0 0 0 0 0 0 0 0 0 0 0 0 0 0 0 0
0 0 0 0 0 0 0 0 0 0 0 0 0 0 0 0 0 0 0 0 0 0 0 0 0 0 0 0 0 0 0 0 0 0 0 0 0 0 0 0 0 0 0 0
0 0 0 0 0 0 0 0 0 0 0 0 0 0 0 0 0 0 0 0 0 0 0 0 0 0 0 0 0 0 0 0 0 0 0 0 0 0 0 0 0 0 0 0
0 0 0 0 0 0 0 0 0 0 0 0 0 0 0 0 0 0 0 0 0 0 0 0 0 0 0 0 0 0 0 0 0 0 0 0 0 0 0 0 0 0 0 0
0 0 0 0 0 0 0 0 0 0 0 0 0 0 0 0 0 0 0 0 0 0 0 0 0 0 0 0 0 0 0 0 0 0 0 0 0 0 0 0 0 0 0 0
0 0 0 0 0 0 0 0 0 0 0 0 0 0 0 0 0 0 0 0 0 0 0 0 0 0 0 0 0 0 0 0 0 0 0 0 0 0 0 0 0 0 0 0
0 0 0 0 0 0 0 0 0 0 0 0 0 0 0 0 0 0 0 0 0 0 0 0 0 0 0 0 0 0 0 0 0 0 0 0 0 0 0 0 0 0 0 0
0 0 0 0 0 0 0 0 0 0 0 0 0 0 0 0 0 0 0 0 0 0 0 0 0 0 0 0 0 0 0 0 0 0 0 0 0 0 0 0 0 0 0 0
0 0 0 0 0 0 0 0 0 0 0 0 0 0 0 0 0 0 0 0 0 0 0 0 0 0 0 0 0 0 0 0 0 0 0 0 0 0 0 0 0 0 0 0
Wind_Speed
12 11 9 8 8 8 8 10 11 11 6 6 6 8 9 11 12 13 12 12 11 10 10 11 11 11 11 12 12 12 12 13 12 12 12 12 11 11 10 10 10 9 9 9
12 9 5 2 7 7 6 7 8 6 4 7 8 10 10 12 12 13 12 13 13 14 14 14 13 13 13 13 13 13 14 14 14 13 13 12 12 11 11 10 10 9 9 9
8 3 7 2 8 9 6 6 9 7 6 10 12 13 13 13 14 14 14 15 17 17 16 15 15 15 15 15 14 14 15 15 14 14 14 13 12 12 11 11 10 9 8 9
8 7 6 9 7 8 6 4 4 5 8 11 13 15 16 16 14 14 17 18 18 18 18 17 17 16 16 16 15 15 15 15 15 15 14 13 13 12 12 10 9 8 8 8
7 9 4 6 6 9 9 8 2 7 13 16 17 19 17 12 14 18 20 20 19 19 19 18 18 17 17 17 17 17 16 16 15 15 15 15 14 13 12 11 10 9 8 8
7 10 5 6 8 9 9 7 3 14 18 19 21 19 15 18 21 21 20 19 19 19 20 18 17 17 18 18 18 17 17 16 15 15 15 15 15 14 12 10 10 9 8 8
8 6 4 6 9 10 9 10 16 18 19 20 20 19 21 23 22 21 21 21 21 20 19 18 18 18 18 18 18 17 16 16 15 15 15 16 14 12 11 11 10 9 8 7
7 6 4 7 9 9 11 15 16 19 20 21 22 23 23 23 23 22 22 22 22 19 19 18 18 18 19 19 18 17 17 16 16 15 15 13 13 12 11 10 10 9 8 6
6 5 5 6 9 10 13 16 19 19 22 23 24 24 25 24 23 22 22 22 21 21 20 19 18 18 20 19 18 17 17 17 16 16 14 14 13 13 11 10 8 7 6 5
4 3 7 10 10 12 15 18 20 21 23 24 25 26 26 24 22 23 22 21 20 21 21 20 18 18 19 18 18 17 17 16 15 14 14 13 10 10 10 9 7 7 6 5
7 7 11 9 14 18 19 20 22 22 23 24 26 26 26 24 23 22 21 20 20 20 20 21 19 19 19 18 17 17 17 16 15 14 13 11 11 9 10 9 7 7 7 5
8 10 13 17 18 20 21 21 22 24 25 24 25 26 26 24 22 22 22 21 21 21 21 21 20 19 18 17 16 16 15 14 12 11 10 9 10 9 9 10 8 9 10 9
10 13 15 19 20 21 20 23 24 24 25 26 24 24 25 24 22 22 23 23 22 22 21 20 20 19 18 16 15 14 14 13 11 10 10 10 9 9 8 7 10 13 13 12
11 13 17 19 20 21 22 24 24 25 24 24 24 24 23 23 23 24 23 23 22 22 21 20 19 19 17 15 13 13 13 12 12 10 10 10 9 9 8 7 6 6 8 10
12 15 18 19 20 21 23 24 25 24 24 24 23 23 23 24 24 23 22 22 21 20 20 19 18 17 15 13 12 12 11 9 9 9 9 9 9 9 8 7 6 5 4 5
15 16 18 19 21 23 24 25 25 25 25 24 23 23 23 23 23 22 22 21 20 19 18 17 17 16 14 12 11 10 9 12 11 9 8 8 8 8 6 6 5 5 5 5
15 17 19 21 22 23 24 24 24 24 24 24 24 24 23 23 22 21 21 20 19 18 17 16 16 14 12 11 10 8 7 8 11 10 8 8 7 6 6 5 5 5 5 7
14 17 18 21 22 23 24 24 23 24 23 24 23 23 22 22 21 21 21 20 19 17 16 14 13 12 11 10 8 6 6 7 7 7 7 7 6 6 5 5 5 5 5 8
15 17 19 20 21 21 22 22 23 22 22 21 22 22 21 21 20 20 20 19 18 16 14 13 12 11 10 8 7 5 6 6 6 6 6 5 6 5 4 4 4 5 7 9
16 17 19 20 21 21 21 21 21 20 20 21 21 21 20 21 20 20 19 16 12 11 13 13 11 9 8 6 6 5 5 5 5 4 4 4 4 4 3 3 4 6 8 9
16 18 19 19 20 20 20 21 20 20 20 20 20 20 20 20 20 18 16 14 13 13 13 12 8 6 5 4 5 4 4 3 3 3 3 2 2 1 2 4 5 6 7 9
15 16 18 19 19 19 19 18 18 20 20 20 21 20 19 19 19 17 15 12 13 14 11 7 6 6 7 6 3 2 3 2 2 2 1 1 1 0 2 6 6 6 7 9
14 15 16 17 18 18 19 18 19 18 19 20 20 19 19 17 14 13 13 12 12 16 11 7 9 8 8 4 2 1 2 1 1 0 0 1 1 1 3 6 6 7 8 9
13 14 15 16 16 17 17 18 18 16 18 18 18 18 17 14 13 11 11 13 14 15 9 8 9 8 6 2 2 2 1 0 1 1 1 1 1 2 4 6 7 7 9 11
13 14 14 15 14 13 15 16 17 17 17 15 18 18 15 11 12 13 13 14 15 13 9 7 8 8 5 4 3 3 2 3 2 2 2 2 2 3 4 6 7 8 8 9
11 11 11 12 11 11 12 12 12 12 13 13 14 14 13 12 13 13 12 14 16 13 10 8 8 6 6 6 5 4 3 3 2 2 2 2 3 4 5 6 9 8 8 8
10 10 9 10 10 11 11 12 12 12 12 13 14 14 14 13 13 14 14 13 12 11 10 9 8 7 7 6 5 5 4 4 3 2 2 3 4 5 6 8 7 7 8 8
Wind_Direction
287 293 291 301 321 320 306 310 307 325 9 44 18 350 341 335 328 322 321 321 319 316 312 311 310 310 309 309 309 310 309 310 310 311 312 312 312 308 300 288 276 268 260 257
282 281 282 341 5 345 347 339 325 326 44 25 345 330 322 317 311 304 301 302 305 307 308 308 307 306 308 306 305 303 302 302 303 302 303 307 308 307 304 296 287 277 263 256
290 333 252 125 21 1 9 359 343 341 352 336 322 317 310 301 293 292 302 309 310 310 308 306 303 303 302 301 300 298 296 297 298 298 299 302 306 306 303 302 295 281 273 262
295 288 283 74 41 13 356 347 353 334 319 310 302 300 296 288 293 308 312 310 309 307 305 304 303 302 301 299 298 295 293 294 297 297 296 299 300 299 300 297 293 283 269 259
303 302 115 100 26 355 324 302 330 324 319 317 317 308 299 318 327 315 309 306 305 304 303 303 302 301 299 296 294 293 293 295 297 298 297 296 295 295 295 294 289 281 269 255
316 308 337 61 8 337 297 274 19 330 322 320 317 309 316 327 315 307 305 304 303 302 300 298 299 299 295 293 292 293 295 296 295 294 293 292 291 290 289 289 285 283 270 255
329 323 74 25 341 320 303 334 335 322 318 315 312 307 308 308 307 306 303 301 300 298 297 297 297 295 291 290 290 291 292 292 290 289 288 284 283 281 283 284 286 283 273 257
331 327 46 10 339 341 323 318 315 315 314 312 308 305 305 306 306 304 303 302 302 299 296 295 293 290 288 287 289 289 288 287 286 286 285 285 283 279 278 280 282 276 265 252
346 356 8 333 319 317 314 312 314 314 313 311 308 307 307 307 305 304 303 302 301 298 296 294 292 290 289 289 289 287 283 282 282 282 281 279 276 274 272 268 268 274 265 245
293 304 324 318 314 319 318 316 314 312 311 310 308 308 307 306 305 304 303 302 301 299 297 295 294 291 289 288 286 283 281 280 279 277 276 275 272 271 269 270 266 268 264 248
289 323 318 316 327 324 320 315 311 310 310 310 308 306 306 305 304 304 304 303 301 298 296 295 294 290 288 287 285 282 279 277 275 273 274 276 271 268 269 271 270 266 270 262
330 335 316 316 321 320 317 315 314 313 311 309 307 306 307 306 306 306 304 303 301 299 297 296 294 291 289 287 283 280 277 274 272 272 272 271 271 269 246 242 239 229 240 249
310 317 311 310 314 319 316 314 314 312 311 311 311 311 310 309 308 306 304 303 302 300 298 296 294 291 290 288 284 279 274 273 273 272 271 268 267 268 271 248 224 222 226 226
311 311 310 315 318 317 316 316 314 313 313 314 314 313 312 310 307 306 304 303 302 299 296 294 292 290 289 288 285 280 274 273 271 267 266 266 265 265 265 263 254 237 219 212
318 318 313 315 316 318 319 319 318 317 318 318 318 315 314 312 309 307 306 304 301 298 296 295 293 293 294 289 283 277 271 268 267 266 264 262 261 262 257 251 252 246 224 181
318 316 317 320 321 321 322 322 321 320 321 320 318 318 316 313 310 308 306 305 304 300 298 297 293 292 291 285 278 272 266 263 263 264 263 261 260 256 249 244 242 234 210 169
320 322 324 324 323 323 323 323 321 321 321 320 320 320 317 315 312 311 310 309 305 300 297 294 293 293 290 283 275 269 267 262 254 257 256 257 256 250 241 241 240 232 199 167
319 319 322 322 323 323 322 323 323 323 321 321 322 321 318 316 315 314 313 311 308 304 302 300 298 296 289 282 274 269 266 263 256 254 253 253 255 244 236 236 238 217 180 162
324 324 324 324 324 323 323 323 323 323 322 324 323 320 317 316 316 315 314 313 313 312 312 310 303 296 291 283 277 264 258 258 258 253 251 247 250 246 235 233 216 190 165 157
326 326 326 325 326 326 324 323 324 323 324 324 322 320 320 320 320 318 317 314 312 315 316 316 311 305 298 289 280 268 260 261 262 258 255 254 244 230 220 202 173 159 156 161
327 327 327 327 327 326 325 326 325 325 327 326 325 323 323 322 322 322 320 320 323 329 325 315 313 316 317 316 282 275 266 260 257 258 263 255 243 229 180 151 149 151 156 161
328 328 328 328 327 327 327 327 329 331 329 328 327 326 326 325 325 325 325 327 328 330 328 331 340 347 339 314 293 284 276 274 267 273 277 270 277 208 138 136 143 149 155 159
327 327 327 328 328 325 326 332 336 333 331 330 329 330 329 326 325 327 330 332 334 334 335 351 352 348 332 309 298 289 296 295 276 229 160 134 140 129 128 137 141 148 156 158
326 327 327 328 327 327 333 336 335 334 332 330 330 332 331 328 328 331 327 327 335 334 345 357 350 344 320 328 9 26 33 58 103 105 90 96 112 121 132 136 137 143 149 154
326 325 328 332 331 334 334 334 335 336 335 333 333 336 336 333 332 333 334 339 343 340 348 359 351 342 355 27 42 53 59 52 46 60 77 94 110 115 122 127 132 138 142 149
326 325 332 329 333 333 335 336 337 336 335 336 336 337 337 338 338 338 340 343 349 349 354 -0 5 6 16 25 35 38 47 67 79 77 76 91 107 114 118 122 128 129 134 137
326 333 333 335 341 343 338 337 339 339 339 341 336 337 339 341 344 345 348 351 354 357 0 4 7 13 18 21 25 37 44 47 50 59 73 84 94 103 113 117 117 121 125 128